GPS III SV04

operational
NORAD ID: 46826 Int'l Des: 2020-078 Owner: SMC Country: US Constellation: GPS
MEOCIRCULARGNSS

GPS III SV04について

説明を読み込み中...

リアルタイム位置

3D地球を読み込み中...

次回通過

高度履歴

Altitude vs Time

uPlot chart will show altitude changes over time

軌道要素

1 46826U 20078A 25289.20312859 -.00000051 00000-0 00000-0 0 9996
2 46826 54.0306 220.6753 0063297 203.5901 326.5064 2.00567135 36619
Epoch: Oct 16, 2025 • Age: 241 hours

現在のステータス

高度 20050.6 km
速度 3.89 km/s
衛星直下点 -41.15°S, 50.01°W
打ち上げ日 Nov 5, 2020
運用期間 4.9 years
タイプ navigation

技術仕様

分類 Payload
質量 4400.00 kg
乾燥質量 2160.00 kg
総質量 4400.00 kg
長さ 3.40 m
直径 1.80 m
スパン 14.00 m
形状 Box + 2 pan
製造者 LMSSD
バスタイプ A2100
フェーズステータス In Orbit
所有者/国 SMC/US

大規模コンステレーション

Loading constellations...